[[{"header":{"parameterUnit":"m.s-1","parameterCategory":1,"la1":30.2991,"la2":30.254,"lo1":-89.0895,"lo2":-89.0444,"dy":0.0017,"dx":0.0017,"nx":28,"ny":28,"refTime":"2025-09-04T03:00:00:Z","depth":0,"parameterNumber":2,"parameterNumberName":"U-component_of_WINDS"},"data":[0,0,0,0,0,0,0,0,0,0,0,0,0,0,0,0,0,0,0,0,0,0,0,0,0,0,0,0,0,0,0,0,0,0,0,0,0,0,0,0,0,0,0,0,0,0,0,0,0,0,0,0,0,0,0,0,0,0,-1.6888,-1.6887,0,-1.6829,-1.6828,-1.6828,-1.6778,-1.6777,-1.6777,-1.6776,-1.6714,-1.6713,-1.6712,0,0,0,0,0,0,0,0,0,0,0,0,0,-1.6958,-1.6957,-1.6888,-1.6887,-1.6887,-1.6829,-1.6828,-1.6827,-1.6778,-1.6777,-1.6777,-1.6776,-1.6715,-1.6713,-1.6712,0,0,0,0,0,0,0,0,0,0,0,0,0,-1.6916,-1.6956,-1.6888,-1.6855,-1.6851,-1.6829,-1.6828,-1.6827,-1.6778,-1.6777,-1.6777,-1.6776,-1.6715,-1.6713,-1.6712,-1.6717,0,0,-1.6706,-1.6705,0,0,0,0,0,0,0,0,-1.6918,-1.6913,-1.6861,-1.6857,-1.6853,-1.681,-1.683,-1.679,-1.6778,-1.6806,-1.6776,-1.6775,-1.6747,-1.6742,-1.6733,-1.6714,-1.6711,-1.6706,-1.6705,-1.6704,-1.6704,0,0,0,0,0,0,0,-1.6921,-1.6916,-1.6865,-1.686,-1.6855,-1.6843,-1.6836,-1.6822,-1.6781,-1.6803,-1.68,-1.6794,-1.6744,-1.6735,-1.6731,-1.671,-1.6706,-1.6705,-1.6704,-1.6703,-1.6695,-1.6695,0,0,0,0,0,0,-1.693,-1.6918,-1.6866,-1.6863,-1.6885,-1.6842,-1.6835,-1.6825,-1.6781,-1.6774,-1.6794,-1.6791,-1.6738,-1.6733,-1.6729,-1.6733,-1.6704,-1.6703,-1.6702,-1.6694,-1.6695,-1.6696,0,0,0,0,0,0,-1.6931,-1.6925,-1.6869,-1.689,-1.6881,-1.6842,-1.6831,-1.6824,-1.6814,-1.6775,-1.6767,-1.6792,-1.6737,-1.6731,-1.6721,-1.673,-1.6702,-1.67,-1.6693,-1.6694,-1.6695,-1.674,0,0,0,0,0,0,-1.6933,-1.6926,-1.6928,-1.689,-1.6881,-1.6862,-1.6832,-1.6823,-1.6811,-1.6807,-1.677,-1.6763,-1.6736,-1.6724,-1.6719,-1.6727,-1.6699,-1.6692,-1.6693,-1.6695,-1.6738,-1.6743,-1.6747,0,0,0,0,0,-1.6936,-1.6942,-1.6928,-1.6922,-1.6882,-1.6863,-1.6857,-1.6826,-1.6812,-1.6814,-1.6789,-1.6764,-1.673,-1.6723,-1.6717,-1.6725,-1.6691,-1.6693,-1.6695,-1.6736,-1.6742,-1.6747,0,0,0,0,0,0,-1.6981,-1.6936,-1.692,-1.6914,-1.6893,-1.6854,-1.6855,-1.6834,-1.6815,-1.6812,-1.6774,-1.6766,-1.676,-1.6741,-1.6734,-1.6729,-1.6707,-1.6708,-1.6741,-1.6746,-1.6751,-1.6755,-1.6698,0,0,0,0,0,-1.699,-1.6978,-1.694,-1.6939,-1.6929,-1.6894,-1.6884,-1.6863,-1.6839,-1.6829,-1.6803,-1.678,-1.6764,-1.6754,-1.6737,-1.6736,-1.6727,-1.6738,-1.6743,-1.6747,-1.6748,-1.6747,-1.6751,-1.6702,-1.6702,-1.6702,0,0,-1.7009,-1.6983,-1.6978,-1.6947,-1.6928,-1.6917,-1.6886,-1.6876,-1.6867,-1.6827,-1.6816,-1.6796,-1.6768,-1.6763,-1.6759,-1.6747,-1.676,-1.675,-1.6753,-1.6751,-1.6749,-1.6754,-1.6758,-1.6703,-1.6703,-1.6703,0,0,-1.7037,-1.7017,-1.7013,-1.6995,-1.6967,-1.6944,-1.6944,-1.6909,-1.6895,-1.6883,-1.6853,-1.6843,-1.6816,-1.6798,-1.6785,-1.6809,-1.6787,-1.6805,-1.6829,-1.6829,-1.6832,-1.6836,-1.6845,-1.6848,-1.6806,-1.6806,-1.6806,0,-1.7063,-1.7046,-1.7014,-1.7006,-1.6994,-1.6959,-1.6955,-1.6939,-1.6907,-1.6899,-1.6887,-1.6854,-1.6832,-1.6822,-1.6829,-1.6819,-1.6818,-1.6808,-1.6835,-1.6838,-1.684,-1.6848,-1.6852,-1.6809,-1.6808,-1.6808,-1.6808,0,-1.708,-1.7069,-1.707,-1.704,-1.7028,-1.7022,-1.699,-1.6982,-1.6962,-1.6941,-1.6931,-1.6904,-1.6882,-1.6878,-1.6858,-1.6866,-1.686,-1.6842,-1.6819,-1.6848,-1.6855,-1.6858,-1.6812,-1.6811,-1.681,-1.681,0,0,-1.7133,-1.7088,-1.7089,-1.7076,-1.7043,-1.7033,-1.7027,-1.7006,-1.7,-1.6979,-1.6973,-1.6952,-1.6936,-1.6922,-1.69,-1.6899,-1.6921,-1.6881,-1.688,-1.6889,-1.6929,-1.6942,-1.6946,-1.6906,-1.6907,-1.6907,-1.6931,0,-1.7156,-1.7142,-1.7114,-1.7109,-1.7098,-1.7066,-1.706,-1.704,-1.7021,-1.7009,-1.6987,-1.6973,-1.6953,-1.6944,-1.6942,-1.6919,-1.6928,-1.6917,-1.69,-1.69,-1.6907,-1.695,-1.6963,-1.6987,-1.6934,-1.6934,-1.6934,0,-1.718,-1.7162,-1.7156,-1.7126,-1.7121,-1.7116,-1.7095,-1.7085,-1.7061,-1.7047,-1.7033,-1.7009,-1.7001,-1.6982,-1.697,-1.6963,-1.6955,-1.6943,-1.6943,-1.6939,-1.6918,-1.6947,-1.6993,-1.6997,-1.6938,-1.6938,-1.6938,0,-1.7219,-1.7194,-1.7188,-1.7177,-1.7142,-1.7139,-1.7124,-1.71,-1.709,-1.7073,-1.7066,-1.7047,-1.7037,-1.7023,-1.6996,-1.6984,-1.6988,-1.6966,-1.6976,-1.6976,-1.6976,-1.6977,-1.7022,-1.6973,-1.6972,-1.6972,-1.6972,0,-1.7247,-1.7244,-1.7205,-1.7201,-1.7198,-1.7167,-1.7165,-1.7147,-1.7126,-1.7118,-1.7089,-1.7083,-1.7047,-1.7036,-1.7015,-1.7009,-1.7004,-1.6993,-1.6987,-1.6995,-1.6996,-1.6988,-1.6985,-1.6973,-1.6973,-1.6973,-1.6973,0,-1.7289,-1.7263,-1.7254,-1.7221,-1.7213,-1.7213,-1.7185,-1.718,-1.716,-1.715,-1.7146,-1.7115,-1.7101,-1.7072,-1.705,-1.7036,-1.7035,-1.7025,-1.7043,-1.7039,-1.7051,-1.705,-1.7092,-1.7096,-1.7044,-1.7045,-1.7045,0,-1.7309,-1.7306,-1.7274,-1.7267,-1.7254,-1.7243,-1.7233,-1.7203,-1.7194,-1.7169,-1.7167,-1.7151,-1.7137,-1.7116,-1.7091,-1.7074,-1.7063,-1.7079,-1.706,-1.7069,-1.7063,-1.7064,-1.7064,-1.7083,-1.7084,-1.7084,-1.7085,0,-1.7346,-1.7333,-1.732,-1.7303,-1.7292,-1.7277,-1.726,-1.7256,-1.7223,-1.7214,-1.72,-1.7189,-1.7168,-1.7152,-1.7132,-1.7117,-1.7096,-1.7091,-1.7093,-1.71,-1.7111,-1.7106,-1.7054,-1.709,-1.709,-1.7089,-1.7089,-1.7089,-1.7377,-1.7374,-1.7351,-1.7338,-1.7323,-1.7309,-1.7303,-1.7283,-1.7271,-1.7251,-1.7234,-1.7222,-1.7201,-1.7172,-1.7158,-1.7148,-1.7138,-1.714,-1.714,-1.7141,-1.7144,-1.7114,-1.7145,-1.7144,-1.7144,-1.7144,-1.7144,0,-1.7413,-1.7397,-1.7385,-1.7364,-1.7354,-1.7336,-1.7317,-1.7309,-1.7299,-1.7281,-1.7268,-1.7253,-1.7238,-1.7213,-1.7197,-1.7194,-1.7184,-1.7191,-1.719,-1.7187,-1.7155,-1.7155,-1.7199,-1.7199,-1.7199,-1.7199,-1.7199,-1.7199,-1.743,-1.7424,-1.7409,-1.7396,-1.738,-1.7368,-1.7359,-1.7346,-1.7332,-1.7316,-1.7304,-1.7288,-1.7268,-1.725,-1.7236,-1.7229,-1.7224,-1.7234,-1.7224,-1.7194,-1.7189,-1.7184,-1.7184,-1.7234,-1.7234,-1.7257,-1.7258,-1.7258]},{"header":{"parameterUnit":"m.s-1","parameterCategory":1,"la1":30.2991,"la2":30.254,"lo1":-89.0895,"lo2":-89.0444,"dy":0.0017,"dx":0.0017,"nx":28,"ny":28,"refTime":"2025-09-04T03:00:00:Z","depth":0,"parameterNumber":3,"parameterNumberName":"V-component_of_WINDS"},"data":[0,0,0,0,0,0,0,0,0,0,0,0,0,0,0,0,0,0,0,0,0,0,0,0,0,0,0,0,0,0,0,0,0,0,0,0,0,0,0,0,0,0,0,0,0,0,0,0,0,0,0,0,0,0,0,0,0,0,3.6266,3.6266,0,3.6247,3.6246,3.6246,3.6266,3.6267,3.6267,3.6268,3.6243,3.6241,3.624,0,0,0,0,0,0,0,0,0,0,0,0,0,3.6315,3.6314,3.6266,3.6266,3.6265,3.6247,3.6246,3.6246,3.6266,3.6267,3.6268,3.6268,3.6243,3.6242,3.624,0,0,0,0,0,0,0,0,0,0,0,0,0,3.6294,3.6313,3.6266,3.6273,3.6273,3.6247,3.6246,3.6246,3.6265,3.6267,3.6268,3.6269,3.6244,3.6242,3.624,3.6203,0,0,3.6233,3.6232,0,0,0,0,0,0,0,0,3.6295,3.6292,3.6272,3.6272,3.6273,3.626,3.6254,3.6232,3.6265,3.6268,3.6268,3.6269,3.6247,3.6245,3.6238,3.6202,3.6201,3.6233,3.6232,3.6231,3.623,0,0,0,0,0,0,0,3.6297,3.6293,3.6258,3.6272,3.6272,3.6276,3.6274,3.625,3.6251,3.6268,3.6269,3.6267,3.6247,3.624,3.6238,3.6201,3.6233,3.6231,3.623,3.6229,3.6134,3.6133,0,0,0,0,0,0,3.6298,3.6294,3.6259,3.6257,3.6287,3.6274,3.6272,3.6263,3.6252,3.6251,3.6266,3.6268,3.6243,3.624,3.6237,3.6194,3.6231,3.6229,3.6228,3.6135,3.6134,3.6132,0,0,0,0,0,0,3.6299,3.6295,3.6259,3.6276,3.6272,3.6272,3.6261,3.6262,3.6255,3.625,3.625,3.6259,3.6244,3.624,3.6212,3.6194,3.6228,3.6226,3.6137,3.6135,3.6133,3.6108,0,0,0,0,0,0,3.63,3.6295,3.6282,3.6276,3.6271,3.6236,3.626,3.6261,3.6252,3.6254,3.6244,3.6243,3.6245,3.6215,3.621,3.6192,3.6224,3.6138,3.6136,3.6134,3.6111,3.6106,3.6102,0,0,0,0,0,3.6302,3.6274,3.6281,3.6277,3.6255,3.6235,3.6232,3.6237,3.625,3.6237,3.6234,3.6243,3.6197,3.6212,3.6207,3.6187,3.614,3.6137,3.6134,3.6113,3.6107,3.6102,0,0,0,0,0,0,3.6276,3.6274,3.6281,3.6251,3.6243,3.6238,3.6221,3.623,3.6216,3.6219,3.6223,3.6221,3.6191,3.6186,3.6204,3.6152,3.617,3.6166,3.6156,3.615,3.6146,3.6147,3.6223,0,0,0,0,0,3.6267,3.6252,3.625,3.6224,3.622,3.6221,3.6212,3.6217,3.6208,3.6204,3.62,3.6189,3.6173,3.6161,3.6145,3.611,3.6108,3.6094,3.609,3.6086,3.6082,3.6063,3.6057,3.6123,3.6123,3.6123,0,0,3.6248,3.6245,3.6235,3.6219,3.6213,3.6197,3.6218,3.6199,3.6187,3.6201,3.6175,3.6171,3.616,3.6128,3.6114,3.6123,3.6064,3.6082,3.6079,3.6077,3.606,3.6054,3.6048,3.6121,3.6122,3.6122,0,0,3.6204,3.6201,3.6179,3.6174,3.6166,3.6167,3.6162,3.6156,3.6155,3.6129,3.614,3.6124,3.6095,3.6087,3.6079,3.6034,3.6042,3.6028,3.6004,3.5986,3.5981,3.5976,3.596,3.5954,3.6025,3.6025,3.6025,0,3.6181,3.6158,3.6166,3.6147,3.6139,3.6154,3.6131,3.6125,3.6112,3.6105,3.6116,3.6081,3.6075,3.6042,3.6031,3.6024,3.6018,3.6029,3.5981,3.5977,3.5972,3.5957,3.5951,3.6023,3.6023,3.6023,3.6024,0,3.6129,3.6113,3.6096,3.6086,3.6076,3.6055,3.6059,3.6048,3.6054,3.6054,3.6027,3.602,3.6004,3.5996,3.6,3.5964,3.597,3.5981,3.6,3.5965,3.595,3.5945,3.6021,3.6021,3.6022,3.6022,0,0,3.6068,3.6063,3.6057,3.6053,3.6046,3.6033,3.6012,3.5999,3.5989,3.5979,3.5962,3.5938,3.5949,3.594,3.5943,3.5927,3.5893,3.594,3.594,3.5931,3.5852,3.5844,3.5837,3.5898,3.5897,3.5896,3.5853,0,3.6024,3.5991,3.5998,3.5965,3.595,3.5965,3.5947,3.594,3.5939,3.5926,3.5924,3.5907,3.5923,3.5918,3.5903,3.59,3.5876,3.5903,3.5881,3.588,3.5883,3.5829,3.582,3.578,3.5847,3.5846,3.5846,0,3.5969,3.596,3.5926,3.5923,3.5917,3.5901,3.5889,3.5876,3.5869,3.5869,3.586,3.5867,3.5846,3.5865,3.5836,3.5854,3.5845,3.5842,3.5841,3.5838,3.586,3.5825,3.5767,3.5761,3.5837,3.5838,3.5838,0,3.5928,3.5907,3.5884,3.588,3.5875,3.5864,3.5861,3.5855,3.5847,3.5836,3.583,3.5816,3.5808,3.5797,3.5799,3.5813,3.5769,3.5789,3.5768,3.5768,3.5757,3.5758,3.5696,3.5752,3.5752,3.5752,3.5752,0,3.5878,3.5857,3.5866,3.5852,3.5828,3.5836,3.5812,3.581,3.5805,3.579,3.5801,3.5786,3.5791,3.5776,3.5777,3.5753,3.5749,3.5748,3.5749,3.5747,3.5747,3.5741,3.5743,3.5751,3.5751,3.5751,3.5751,0,3.5828,3.5833,3.5809,3.5808,3.5807,3.579,3.5788,3.5774,3.5775,3.5756,3.5752,3.5753,3.5736,3.5738,3.5718,3.572,3.5689,3.5693,3.5692,3.5693,3.5672,3.5674,3.5604,3.5595,3.5657,3.5656,3.5656,0,3.5796,3.578,3.5778,3.577,3.5767,3.5753,3.5745,3.5753,3.5744,3.5735,3.5722,3.5707,3.5695,3.5667,3.5665,3.565,3.5654,3.5631,3.5651,3.5651,3.5653,3.5654,3.5653,3.5626,3.5625,3.5625,3.5624,0,3.5739,3.5743,3.5732,3.5722,3.5713,3.5705,3.5698,3.569,3.5697,3.5686,3.567,3.5661,3.5643,3.5627,3.5614,3.5609,3.5617,3.5618,3.5613,3.561,3.5611,3.561,3.568,3.5619,3.562,3.562,3.562,3.5621,3.5696,3.5684,3.568,3.5668,3.5664,3.5658,3.5645,3.5646,3.5634,3.562,3.5625,3.5607,3.56,3.5583,3.5578,3.5563,3.5571,3.5563,3.5561,3.5559,3.5556,3.5614,3.556,3.556,3.556,3.5561,3.5561,0,3.564,3.5639,3.5628,3.5619,3.5609,3.5621,3.5614,3.5604,3.5589,3.5583,3.5572,3.5554,3.5539,3.5537,3.5523,3.5511,3.5515,3.5507,3.5508,3.5507,3.555,3.5556,3.5505,3.5505,3.5505,3.5505,3.5505,3.5505,3.5609,3.5588,3.5592,3.5569,3.5568,3.5552,3.5547,3.5541,3.5536,3.5516,3.5505,3.5505,3.55,3.5486,3.5472,3.5472,3.5466,3.5457,3.5458,3.5498,3.5503,3.5509,3.5515,3.5456,3.5456,3.5416,3.5416,3.5415]}]]